Arian — V2FM3 — position and weather

sailwx.info

Track history (hours):
 
Tides and Currents Weather Stations Pressure Air Temp Water Temp Dewpoint Dewpoint Depression Visibility Wind Speed Wind Dir Waves Ship Positions

Arian

Last reported at 2018-Feb-22 03:43 UTC. Time now 2018-Feb-24 16:33 UTC.
Position N 14°17' W 061°12'.

Length 161 m; draft 8 m.

Type: Ship (hazmat cat A). MMSI: 305720000.

Date/timePositionNaut miles runAvg speedWind from/ knotsBaromVisibWave heightAir tempDewpointWater temp
2018-Feb-22 03:43N 14°17' W 061°12'616.1
2018-Feb-22 03:20N 14°14' W 061°07'514.8
2018-Feb-22 03:01N 14°12' W 061°02'916.7
2018-Feb-22 02:29N 14°08' W 060°54'8 0.2
2018-Feb-20 03:26N 14°09' W 061°03'715.6
2018-Feb-20 03:01N 14°15' W 061°04'915.7
2018-Feb-20 02:25N 14°24' W 061°06'1014.6
2018-Feb-20 01:46N 14°34' W 061°07'2 9.8
2018-Feb-20 01:30N 14°35' W 061°05'1 3.0
2018-Feb-20 01:00N 14°36' W 061°03'0 0.0
2018-Feb-20 00:26N 14°36' W 061°03'0 0.0
2018-Feb-19 23:59N 14°36' W 061°03'0 0.0
2018-Feb-19 23:26N 14°36' W 061°03'0 0.0
2018-Feb-19 22:59N 14°36' W 061°03'0 0.0
2018-Feb-19 22:29N 14°36' W 061°03'0 0.0
2018-Feb-19 21:47N 14°36' W 061°03'0 0.0
2018-Feb-19 21:17N 14°36' W 061°03'0 0.0
2018-Feb-19 20:05N 14°36' W 061°03'0 0.0
2018-Feb-19 19:59N 14°36' W 061°03'0 0.0
2018-Feb-19 19:23N 14°36' W 061°03'0 0.0
2018-Feb-19 18:56N 14°36' W 061°03'0 0.0
2018-Feb-19 18:29N 14°36' W 061°03'0 0.0
2018-Feb-19 17:53N 14°36' W 061°03'0 0.0
2018-Feb-19 17:25N 14°36' W 061°03'1 2.6
2018-Feb-19 17:00N 14°35' W 061°04'5 8.4
2018-Feb-19 16:22N 14°33' W 061°09'410.0
2018-Feb-19 15:58N 14°31' W 061°13'510.1
2018-Feb-19 15:26N 14°26' W 061°14'  
Track history (hours):
 
Tides and Currents Weather Stations Pressure Air Temp Water Temp Dewpoint Dewpoint Depression Visibility Wind Speed Wind Dir Waves Ship Positions

Arian

Last reported at 2018-Feb-22 03:43 UTC. Time now 2018-Feb-24 16:33 UTC.
Position N 14°17' W 061°12'.

Length 161 m; draft 8 m.

Type: Ship (hazmat cat A). MMSI: 305720000.

Date/timePositionNaut miles runAvg speedWind from/ knotsBaromVisibWave heightAir tempDewpointWater temp
2018-Feb-22 03:43N 14°17' W 061°12'616.1
2018-Feb-22 03:20N 14°14' W 061°07'514.8
2018-Feb-22 03:01N 14°12' W 061°02'916.7
2018-Feb-22 02:29N 14°08' W 060°54'8 0.2
2018-Feb-20 03:26N 14°09' W 061°03'715.6
2018-Feb-20 03:01N 14°15' W 061°04'915.7
2018-Feb-20 02:25N 14°24' W 061°06'1014.6
2018-Feb-20 01:46N 14°34' W 061°07'2 9.8
2018-Feb-20 01:30N 14°35' W 061°05'1 3.0
2018-Feb-20 01:00N 14°36' W 061°03'0 0.0
2018-Feb-20 00:26N 14°36' W 061°03'0 0.0
2018-Feb-19 23:59N 14°36' W 061°03'0 0.0
2018-Feb-19 23:26N 14°36' W 061°03'0 0.0
2018-Feb-19 22:59N 14°36' W 061°03'0 0.0
2018-Feb-19 22:29N 14°36' W 061°03'0 0.0
2018-Feb-19 21:47N 14°36' W 061°03'0 0.0
2018-Feb-19 21:17N 14°36' W 061°03'0 0.0
2018-Feb-19 20:05N 14°36' W 061°03'0 0.0
2018-Feb-19 19:59N 14°36' W 061°03'0 0.0
2018-Feb-19 19:23N 14°36' W 061°03'0 0.0
2018-Feb-19 18:56N 14°36' W 061°03'0 0.0
2018-Feb-19 18:29N 14°36' W 061°03'0 0.0
2018-Feb-19 17:53N 14°36' W 061°03'0 0.0
2018-Feb-19 17:25N 14°36' W 061°03'1 2.6
2018-Feb-19 17:00N 14°35' W 061°04'5 8.4
2018-Feb-19 16:22N 14°33' W 061°09'410.0
2018-Feb-19 15:58N 14°31' W 061°13'510.1
2018-Feb-19 15:26N 14°26' W 061°14'  

Dump ship's entire track history